Date String (YYYY-MM-DD hh:mm:ss) UTC,Instrument flags,Ambient pressure (hPa),Sample flow (lpm),Bypass flow (lpm),Sample temperature (°C),Ambient temperature (°C),ASC tube jacket temperature (°C),LED temperature (°C),Box temperature (°C),Sample RH (%),Span deviation,Mass concentration (μg/m³),Mass concentration (μg/m³),Mass concentration (μg/m³)
DateTimeUTC,F1_M11,P_M11,Q1_M11,Q2_M11,T1_M11,T2_M11,T3_M11,T4_M11,T5_M11,U1_M11,ZSPAN_M11,X0_M11,X2_M11,X1_M11
2021-12-01 08:00:00,,0826.7,4.98,0.00,26.0,25.2,00.0,35.2,27.7,09.5,0000.0,0001.46,0000.72,0000.48
2021-12-01 08:01:00,,0826.7,5.01,0.00,26.0,25.2,00.0,35.2,27.7,09.5,0000.0,0001.41,0000.72,0000.48
2021-12-01 08:02:00,,0826.7,5.01,0.00,26.0,25.1,00.0,35.2,27.7,09.4,0000.0,0001.40,0000.73,0000.48
2021-12-01 08:03:00,,0826.7,4.98,0.00,26.0,25.1,00.0,35.2,27.7,09.3,0000.0,0001.50,0000.78,0000.47
2021-12-01 08:04:00,,0826.7,5.00,0.00,26.0,25.1,00.0,35.1,27.7,09.4,0000.0,0001.56,0000.78,0000.45
2021-12-01 08:05:00,,0826.7,4.99,0.00,26.0,25.1,00.0,35.1,27.7,09.3,0000.0,0001.59,0000.75,0000.43
2021-12-01 08:06:00,,0826.7,5.00,0.00,25.9,25.1,00.0,35.1,27.6,09.3,0000.0,0001.77,0000.72,0000.42
2021-12-01 08:07:00,,0826.7,5.00,0.00,25.9,25.1,00.0,35.1,27.6,09.4,0000.0,0003.03,0000.74,0000.41
2021-12-01 08:08:00,,0826.7,4.99,0.00,25.9,25.0,00.0,35.1,27.6,09.4,0000.0,0003.11,0000.75,0000.41
2021-12-01 08:09:00,,0826.7,4.99,0.00,25.9,25.0,00.0,35.0,27.6,09.3,0000.0,0003.02,0000.75,0000.40
2021-12-01 08:10:00,,0826.7,5.01,0.00,25.9,25.0,00.0,35.0,27.6,09.4,0000.0,0003.02,0000.73,0000.40
2021-12-01 08:11:00,,0826.7,5.00,0.00,25.9,25.0,00.0,35.0,27.6,09.4,0000.0,0002.85,0000.67,0000.38
2021-12-01 08:12:00,,0826.7,5.00,0.00,25.9,25.1,00.0,35.0,27.7,09.4,0000.0,0003.46,0000.62,0000.36
2021-12-01 08:13:00,,0826.8,4.99,0.00,25.9,25.1,00.0,35.0,27.7,09.4,0000.0,0003.59,0000.62,0000.35
2021-12-01 08:14:00,,0826.7,5.01,0.00,25.9,25.1,00.0,35.0,27.7,09.4,0000.0,0003.53,0000.59,0000.35
2021-12-01 08:15:00,,0826.7,5.00,0.00,26.0,25.2,00.0,35.0,27.7,09.4,0000.0,0003.52,0000.58,0000.34
2021-12-01 08:16:00,,0826.7,4.99,0.00,26.0,25.2,00.0,35.0,27.8,09.5,0000.0,0003.40,0000.56,0000.33
2021-12-01 08:17:00,,0826.7,5.01,0.00,26.0,25.2,00.0,35.0,27.8,09.6,0000.0,0003.50,0000.56,0000.32
2021-12-01 08:18:00,,0826.7,5.00,0.00,26.0,25.2,00.0,35.0,27.8,09.6,0000.0,0002.19,0000.51,0000.30
2021-12-01 08:19:00,,0826.7,5.01,0.00,26.0,25.2,00.0,35.0,27.8,09.5,0000.0,0002.92,0000.49,0000.29
2021-12-01 08:20:00,,0826.7,4.99,0.00,26.0,25.3,00.0,35.0,27.9,09.6,0000.0,0003.36,0000.55,0000.28
2021-12-01 08:21:00,,0826.6,5.01,0.00,26.1,25.3,00.0,35.0,27.9,09.6,0000.0,0003.50,0000.55,0000.28
2021-12-01 08:22:00,,0826.7,4.99,0.00,26.1,25.3,00.0,35.0,27.9,09.5,0000.0,0003.70,0000.58,0000.27
2021-12-01 08:23:00,,0826.7,5.01,0.00,26.1,25.3,00.0,35.0,28.0,09.5,0000.0,0003.29,0000.59,0000.27
2021-12-01 08:24:00,,0826.7,4.99,0.00,26.1,25.3,00.0,35.0,28.0,09.6,0000.0,0002.84,0000.59,0000.26
2021-12-01 08:25:00,,0826.7,5.00,0.00,26.1,25.3,00.0,35.0,28.0,09.6,0000.0,0002.79,0000.57,0000.26
2021-12-01 08:26:00,,0826.7,5.01,0.00,26.1,25.3,00.0,35.0,27.9,09.6,0000.0,0002.66,0000.52,0000.26
2021-12-01 08:27:00,,0826.7,5.00,0.00,26.1,25.3,00.0,35.1,27.9,09.6,0000.0,0002.63,0000.50,0000.25
2021-12-01 08:28:00,,0826.7,4.99,0.00,26.1,25.3,00.0,35.1,27.9,09.6,0000.0,0002.50,0000.49,0000.26
2021-12-01 08:29:00,,0826.7,5.01,0.00,26.1,25.4,00.0,35.1,28.0,09.5,0000.0,0002.64,0000.52,0000.26
2021-12-01 08:30:00,,0826.7,4.99,0.00,26.1,25.4,00.0,35.1,28.0,09.6,0000.0,0002.01,0000.56,0000.27
2021-12-01 08:31:00,,0826.7,5.01,0.00,26.1,25.3,00.0,35.1,27.9,09.6,0000.0,0001.44,0000.53,0000.27
2021-12-01 08:32:00,,0826.7,4.99,0.00,26.1,25.3,00.0,35.1,27.9,09.6,0000.0,0001.25,0000.53,0000.28
2021-12-01 08:33:00,,0826.7,5.00,0.00,26.1,25.3,00.0,35.1,27.9,09.4,0000.0,0001.09,0000.51,0000.28
2021-12-01 08:34:00,,0826.7,5.00,0.00,26.1,25.4,00.0,35.1,28.0,09.4,0000.0,0001.81,0000.51,0000.29
2021-12-01 08:35:00,,0826.7,5.00,0.00,26.1,25.4,00.0,35.1,28.0,09.4,0000.0,0002.14,0000.52,0000.30
2021-12-01 08:36:00,,0826.7,5.00,0.00,26.2,25.4,00.0,35.1,28.0,09.5,0000.0,0002.18,0000.52,0000.30
2021-12-01 08:37:00,,0826.6,4.99,0.00,26.2,25.4,00.0,35.1,28.0,09.4,0000.0,0002.23,0000.54,0000.31
2021-12-01 08:38:00,,0826.5,5.01,0.00,26.2,25.4,00.0,35.1,28.0,09.5,0000.0,0002.25,0000.55,0000.31
2021-12-01 08:39:00,,0826.5,5.00,0.00,26.2,25.4,00.0,35.1,28.0,09.4,0000.0,0002.47,0000.56,0000.31
2021-12-01 08:40:00,,0826.5,4.99,0.00,26.2,25.4,00.0,35.1,28.0,09.3,0000.0,0002.59,0000.58,0000.32
2021-12-01 08:41:00,,0826.5,5.00,0.00,26.2,25.4,00.0,35.1,28.0,09.3,0000.0,0002.41,0000.54,0000.33
2021-12-01 08:42:00,,0826.5,5.00,0.00,26.2,25.4,00.0,35.1,28.0,09.3,0000.0,0002.39,0000.54,0000.33
2021-12-01 08:43:00,,0826.5,5.00,0.00,26.2,25.4,00.0,35.1,28.0,09.3,0000.0,0002.31,0000.51,0000.34
2021-12-01 08:44:00,,0826.5,5.00,0.00,26.2,25.4,00.0,35.1,28.0,09.3,0000.0,0002.72,0000.54,0000.34
2021-12-01 08:45:00,,0826.5,4.99,0.00,26.2,25.4,00.0,35.1,28.1,09.3,0000.0,0002.43,0000.55,0000.34
2021-12-01 08:46:00,,0826.6,5.00,0.00,26.2,25.4,00.0,35.1,28.1,09.3,0000.0,0001.85,0000.55,0000.34
2021-12-01 08:47:00,,0826.6,5.00,0.00,26.2,25.5,00.0,35.1,28.0,09.3,0000.0,0001.89,0000.61,0000.36
2021-12-01 08:48:00,,0826.7,5.00,0.00,26.3,25.5,00.0,35.1,28.1,09.3,0000.0,0002.04,0000.66,0000.37
2021-12-01 08:49:00,,0826.7,5.01,0.00,26.3,25.5,00.0,35.2,28.1,09.3,0000.0,0002.16,0000.71,0000.38
2021-12-01 08:50:00,,0826.7,4.99,0.00,26.3,25.5,00.0,35.2,28.1,09.3,0000.0,0002.07,0000.74,0000.39
2021-12-01 08:51:00,,0826.7,5.00,0.00,26.3,25.5,00.0,35.2,28.1,09.3,0000.0,0001.81,0000.72,0000.39
2021-12-01 08:52:00,,0826.7,5.01,0.00,26.3,25.5,00.0,35.2,28.1,09.8,0000.0,0002.58,0000.80,0000.42
2021-12-01 08:53:00,,0826.7,4.99,0.00,26.3,25.5,00.0,35.2,28.2,10.3,0000.0,0004.40,0001.12,0000.56
2021-12-01 08:54:00,,0826.6,5.00,0.00,26.3,25.5,00.0,35.2,28.2,09.9,0000.0,0005.23,0001.25,0000.63
2021-12-01 08:55:00,,0826.7,4.99,0.00,26.3,25.5,00.0,35.2,28.1,09.6,0000.0,0006.02,0001.31,0000.67
2021-12-01 08:56:00,,0826.7,5.01,0.00,26.3,25.5,00.0,35.2,28.1,09.5,0000.0,0006.17,0001.35,0000.69
2021-12-01 08:57:00,,0826.6,4.99,0.00,26.3,25.5,00.0,35.2,28.2,09.5,0000.0,0006.17,0001.35,0000.69
2021-12-01 08:58:00,,0826.7,5.01,0.00,26.3,25.5,00.0,35.2,28.1,09.5,0000.0,0006.19,0001.34,0000.69
2021-12-01 08:59:00,,0826.7,4.99,0.00,26.3,25.5,00.0,35.2,28.1,09.4,0000.0,0006.08,0001.30,0000.69
